RH
97 85 84 82 85 87 86 94 95 95 95 94 75 82 86 97 98 92 83 89 85 98 97 79 65 98 98 92 90 89 83 79 69 78 84 69 53 52 45 56 56 56 55 58 70 66 61 40 39 41 32 38 34 33
90 78 86 82 95 94 95 96 93 96 96 76 63 78 94 97 97 93 96 87 97 99 78 59 67 85 98 92 83 85 40 74 67 81 78 79 52 53 60 63 50 64 60 51 40 42 36 34 36 37 38 38 35 32
87 81 76 83 84 84 89 90 87 76 70 66 74 85 96 97 95 94 91 87 93 93 72 67 59 96 89 96 98 83 53 55 28 40 44 42 46 42 48 56 58 47 47 53 52 47 41 38 34 36 38 38 38 35
95 90 85 85 84 90 88 83 84 80 88 87 90 96 97 97 96 89 96 89 97 92 96 93 94 87 96 95 81 65 74 41 34 34 40 49 39 50 53 46 48 48 52 54 52 50 44 42 40 38 38 38 42 37
96 94 88 85 95 94 95 99 100 85 95 93 96 97 96 95 96 97 100 97 94 88 83 62 64 81 94 91 86 72 83 65 64 60 51 47 48 48 46 48 57 60 52 52 51 50 48 48 48 41 44 42 42 29
96 96 97 97 96 96 96 96 97 96 95 97 96 97 97 97 93 98 98 96 95 82 78 97 75 86 100 85 84 84 78 75 72 69 82 74 48 62 60 41 18 14 34 56 55 53 50 50 53 47 46 44 39 26
96 97 98 96 92 93 91 92 94 94 91 93 95 98 99 92 96 97 95 83 82 70 76 88 85 82 96 83 97 95 80 81 76 81 87 82 78 78 81 70 56 51 32 45 59 59 56 56 54 54 48 42 33 30
94 95 97 97 96 96 96 98 97 94 94 98 97 97 97 97 97 93 80 70 64 78 82 95 88 95 92 94 99 94 99 100 87 77 84 84 94 94 95 80 66 59 64 57 47 46 58 59 56 54 52 48 38 35
70 81 94 95 96 96 96 97 98 98 97 97 96 95 88 67 54 93 74 87 69 82 94 83 71 78 94 79 100 99 92 99 99 96 92 92 81 87 85 75 67 74 54 55 53 52 61 58 61 61 56 52 54 43
80 77 75 78 89 91 91 90 90 92 88 83 71 73 69 74 96 100 97 97 94 84 77 69 61 86 99 98 97 99 98 98 93 99 91 82 91 93 92 83 80 83 79 69 59 60 60 59 73 66 62 64 57 51
86 86 90 91 88 79 77 76 74 68 67 68 75 86 68 82 96 92 76 95 94 90 81 60 57 94 98 96 90 93 99 97 98 98 90 91 94 99 94 96 84 81 82 81 73 67 64 69 71 67 66 61 66 65
96 84 83 88 86 77 68 67 71 75 97 99 78 78 80 92 86 68 69 93 88 73 54 66 85 90 96 99 83 76 85 94 99 99 95 94 98 90 95 95 90 83 77 78 75 73 74 68 64 73 75 78 91 96
74 70 68 70 70 71 77 94 96 97 98 100 94 92 93 95 82 83 97 100 100 85 49 93 100 100 87 89 80 98 100 100 99 100 99 99 100 96 94 94 98 100 97 93 87 85 88 94 99 100 100 100 98 95
82 89 91 90 95 95 89 96 88 90 95 87 91 80 97 91 97 82 93 100 99 100 87 97 100 100 88 83 83 99 99 98 97 96 96 96 98 100 100 100 100 100 100 100 100 99 98 98 96 98 99 98 98 98
85 95 98 97 95 91 93 89 90 89 79 94 93 79 97 96 95 94 85 75 85 100 97 99 100 96 88 97 97 97 97 95 95 97 98 96 96 96 97 97 98 98 98 98 100 98 98 98 98 98 97 98 98 96
65 80 93 88 94 94 92 94 97 96 97 96 98 96 95 96 96 96 97 97 97 98 98 98 97 97 97 96 96 96 95 97 97 97 96 94 95 96 96 97 97 97 98 98 96 97 98 98 97 97 97 96 95 96
58 73 84 86 94 93 95 96 96 95 95 95 96 96 96 96 96 97 98 98 98 98 98 97 95 93 98 95 95 95 95 96 96 96 96 95 96 96 96 96 96 96 96 96 96 96 96 96 96 96 95 95 96 96
60 60 62 74 91 94 95 95 96 95 96 96 95 96 97 97 97 97 97 97 98 97 90 78 94 93 88 94 97 96 95 95 96 96 96 96 96 96 96 96 96 95 94 95 96 95 94 95 95 95 95 95 96 96
96 96 96 96 96 96 95 95 91 94 96 96 93 87 87 94 96 96 96 96 96 91 76 78 85 92 97 96 96 97 98 98 98 97 97 96 96 96 96 96 96 96 96 96 96 96 95 95 95 94 95 96 95 96
96 96 96 96 96 95 94 95 93 96 92 81 61 39 33 47 55 70 89 91 91 84 70 85 96 99 98 98 98 97 96 95 96 96 96 97 96 96 96 96 96 96 96 96 96 95 96 97 96 96 96 96 96 96
96 96 96 96 96 94 94 95 95 92 80 72 69 60 60 80 66 57 57 71 53 63 86 100 100 100 100 100 97 96 94 95 97 96 95 95 95 95 96 96 95 95 96 96 96 96 97 96 96 96 96 96 97 96
96 97 97 97 97 94 93 86 63 50 53 50 51 49 48 45 42 40 37 27 59 92 96 99 98 99 99 99 99 98 96 97 95 94 94 93 95 95 95 94 94 94 95 95 95 94 94 94 93 94 94 92 88 84
93 89 82 68 67 68 60 44 37 30 31 28 25 27 31 29 31 35 48 60 80 91 97 98 98 98 89 79 79 79 78 75 82 81 80 80 77 73 70 72 73 70 68 64 62 56 52 47 43 42 39 35 30 25
11 10 10 18 31 44 39 23 14 15 17 18 19 30 29 34 36 46 55 76 84 94 95 89 86 84 80 77 83 80 76 70 67 65 61 54 48 43 39 38 35 32 33 34 34 31 27 22 18 15 14 15 17 18
7 5 7 12 17 16 12 12 12 16 18 19 20 28 34 35 39 58 63 69 79 88 91 88 88 87 91 95 92 87 79 68 55 50 43 40 39 38 36 35 34 30 23 19 16 14 14 16 19 20 16 12 11 12
6 7 7 7 9 9 11 13 16 16 16 17 25 32 41 42 48 52 62 70 79 88 92 93 95 98 97 95 90 77 64 54 50 46 47 47 44 37 29 22 17 15 15 18 22 24 21 13 10 12 14 14 12 10
6 7 6 7 6 7 10 12 14 15 16 26 28 29 30 36 39 45 56 71 82 90 96 99 100 98 94 86 71 58 52 50 50 49 45 34 24 18 15 16 21 25 26 20 12 11 12 14 16 16 14 12 11 11
7 11 8 8 10 10 11 13 13 12 13 13 17 14 15 15 24 45 59 75 88 96 99 98 95 90 74 60 52 50 53 50 40 31 21 16 17 24 28 27 19 13 11 12 14 15 17 20 20 18 16 14 13 13
11 11 12 10 8 7 6 5 5 6 6 7 7 7 8 9 11 24 56 86 96 97 91 83 70 58 52 55 54 43 33 24 17 19 27 31 28 21 16 13 13 16 17 18 20 22 24 26 26 26 24 20 18 16
9 6 6 5 5 6 7 8 9 9 10 10 11 12 12 14 16 22 39 53 61 61 56 50 51 55 48 37 25 17 22 31 33 30 24 19 16 16 18 21 22 24 25 27 28 29 30 31 32 33 34 33 31 26
6 6 7 8 9 11 12 13 13 14 14 15 15 16 19 24 29 32 39 42 44 46 48 47 36 25 16 20 33 34 32 28 24 21 20 21 23 25 26 28 29 30 30 32 33 34 35 37 38 39 40 41 42 42
11 12 12 12 15 16 17 17 17 17 17 17 18 20 23 30 35 37 40 42 40 37 30 19 15 26 35 36 34 31 29 28 27 27 28 29 29 30 30 30 31 32 33 35 36 37 39 40 42 43 44 45 45 46
17 18 18 18 19 20 19 19 19 19 19 19 21 22 30 35 40 40 39 34 27 18 15 26 36 38 37 36 33 32 30 31 32 32 32 31 31 31 31 31 32 33 34 35 36 38 40 41 43 45 46 48 49 50
Wind_Speed
19 13 8 3 3 8 17 25 36 46 49 45 49 50 43 58 55 60 50 59 56 34 30 27 35 30 31 39 38 32 35 31 31 27 22 18 20 21 24 25 24 22 24 22 20 15 15 21 21 23 28 22 20 22
9 9 8 11 10 14 30 30 37 42 45 42 45 50 49 48 57 53 50 57 60 42 30 33 35 40 38 37 36 36 43 35 31 24 20 15 20 18 23 27 28 25 24 21 26 24 28 26 26 27 24 23 25 24
10 12 14 17 21 22 26 32 36 39 39 38 42 43 49 51 52 50 49 52 58 50 37 31 40 25 30 38 42 34 37 28 38 39 26 25 19 29 25 32 26 36 35 31 28 25 24 27 28 29 29 27 28 25
13 15 20 24 23 24 27 30 33 34 39 41 44 44 48 50 49 45 46 45 45 42 37 24 25 21 27 41 41 42 31 40 35 29 35 30 25 24 23 25 27 30 31 34 35 33 30 28 28 29 30 28 28 27
22 19 22 24 24 27 31 32 36 34 36 45 37 45 47 46 48 44 41 43 44 36 11 32 29 20 21 35 41 40 38 30 33 27 34 36 32 29 27 29 30 30 35 35 37 32 31 29 33 29 28 26 27 26
22 26 29 27 28 30 33 39 41 38 37 37 42 44 41 40 38 36 38 37 38 32 24 11 27 31 27 40 35 41 44 40 32 40 30 29 30 23 28 43 39 38 35 28 36 32 30 30 21 24 22 24 27 26
23 22 21 25 31 29 33 37 39 41 40 39 39 39 36 35 31 31 28 30 28 29 31 6 4 22 18 47 31 30 35 37 35 33 28 35 31 31 36 37 24 29 33 37 29 28 33 35 31 29 33 25 25 27
20 23 25 24 28 31 34 38 38 35 36 39 37 35 33 31 28 23 23 23 29 27 31 9 6 5 13 17 18 28 31 32 34 39 34 30 27 33 32 34 34 36 22 24 29 34 31 24 24 23 26 25 25 29
26 24 24 26 30 33 31 35 33 33 39 35 35 33 28 23 26 19 16 19 28 25 19 12 12 8 18 24 20 23 30 33 25 38 36 31 35 30 27 27 23 21 30 36 31 28 26 30 28 29 31 32 32 35
26 29 31 31 31 32 32 34 36 35 32 32 30 32 36 40 25 27 19 19 16 18 19 23 20 15 15 23 21 20 24 21 24 32 31 42 37 38 29 23 20 18 25 25 29 35 41 44 37 32 38 35 35 36
27 31 36 38 42 41 39 40 41 41 40 33 26 26 32 29 19 10 7 11 13 8 11 20 26 23 16 20 15 10 10 15 14 18 27 23 33 34 36 35 33 31 24 20 25 29 32 31 33 36 33 33 32 35
28 33 36 38 39 37 36 34 36 34 21 17 25 30 33 23 8 5 6 7 8 8 9 20 24 20 15 9 7 5 6 6 4 16 17 11 19 22 25 26 28 32 34 31 30 34 36 37 34 31 32 29 28 25
28 35 40 38 36 33 33 33 23 23 29 31 30 22 14 5 7 6 8 6 7 10 21 12 15 13 12 8 3 4 6 6 10 13 8 3 11 18 19 23 25 27 29 30 31 33 35 31 27 26 27 27 27 30
36 40 44 44 40 27 23 18 27 25 33 21 12 10 5 5 6 15 12 9 13 12 15 12 11 8 8 7 6 4 6 7 3 5 4 2 6 12 17 18 21 23 22 22 24 21 18 18 18 19 22 21 17 17
26 34 39 36 24 18 27 21 22 24 23 6 8 7 5 4 7 12 16 22 19 17 17 17 15 11 15 8 7 6 4 6 6 6 6 4 5 5 6 6 6 5 6 7 7 8 8 8 7 8 9 10 11 12
22 24 26 26 21 20 24 13 7 11 15 3 5 7 6 6 7 10 14 17 18 18 21 17 9 6 6 5 4 6 5 5 6 9 8 8 7 6 6 6 6 6 7 7 7 7 5 5 4 4 5 5 7 10
20 20 21 22 21 20 19 12 6 11 7 7 8 8 8 13 14 14 16 15 12 10 7 7 5 6 6 6 6 7 11 12 12 12 10 10 10 11 10 7 6 5 4 5 6 8 6 5 3 2 2 3 6 9
23 28 27 25 25 18 4 2 15 17 21 18 17 16 15 15 14 12 11 10 9 8 7 8 9 7 8 11 18 16 15 15 14 13 14 14 14 11 10 9 10 9 7 6 4 3 2 1 1 2 4 6 8 10
17 17 17 16 14 11 8 19 24 20 22 24 24 23 20 19 17 16 13 11 9 8 10 12 12 26 26 22 20 18 16 15 14 13 13 12 11 9 8 7 7 6 4 3 2 1 1 2 3 5 6 8 9 11
17 17 16 14 15 19 15 16 19 17 27 27 26 28 29 25 21 16 12 10 9 6 21 32 33 28 25 22 20 18 16 16 13 9 7 6 6 6 3 3 2 2 1 0 1 2 4 5 6 8 10 11 13 15
15 12 11 13 11 14 14 16 23 23 26 28 26 27 27 22 22 22 22 22 20 34 38 33 28 25 22 19 16 14 12 11 6 4 4 3 3 2 3 3 3 4 5 6 7 8 9 10 11 13 14 16 18 21
14 12 5 10 16 20 16 21 19 23 25 24 24 25 25 26 25 24 24 28 34 34 30 25 22 19 15 12 11 7 6 5 3 3 3 4 4 5 5 6 6 7 8 9 10 11 13 14 16 18 20 22 24 26
23 23 25 28 22 18 25 26 16 17 11 15 15 19 18 18 17 14 20 25 26 24 21 18 15 12 9 8 7 6 4 4 5 4 5 4 5 6 8 9 10 11 13 14 16 17 18 20 21 23 24 26 28 30
16 16 13 7 9 12 15 17 19 17 17 16 16 18 16 17 14 17 20 19 18 18 15 13 12 10 8 7 5 3 1 1 2 4 5 7 9 10 11 12 14 15 15 16 17 19 20 22 24 27 29 31 32 34
6 9 12 15 13 18 16 15 16 19 18 14 13 10 8 8 8 11 12 13 13 11 9 8 7 5 4 2 0 2 4 6 8 9 10 10 11 12 13 14 14 15 17 19 22 24 25 27 28 29 30 29 30 31
3 5 8 13 15 12 12 16 14 16 12 10 9 9 8 6 4 5 9 8 9 8 7 5 4 2 2 3 6 8 9 10 10 10 11 11 11 12 14 16 19 21 22 23 25 26 26 25 25 26 28 29 30 29
9 10 13 12 15 16 17 17 15 12 10 7 8 6 4 2 1 3 5 7 7 6 5 4 3 5 7 8 10 10 10 10 10 10 10 12 14 17 19 21 22 22 23 23 22 21 22 23 24 26 26 27 27 26
21 22 20 19 19 16 16 15 12 8 7 6 4 2 0 1 3 4 6 7 7 6 6 7 8 9 9 10 10 9 8 9 10 12 15 18 19 20 21 22 22 21 20 19 20 20 21 22 23 24 24 24 24 24
27 24 20 18 15 14 11 10 9 9 7 5 3 2 1 2 2 3 5 6 7 7 7 8 8 8 8 7 6 8 10 12 15 17 18 19 20 20 19 18 18 18 18 18 18 19 20 21 21 22 22 22 22 22
23 20 17 14 13 14 12 10 10 8 6 3 2 1 1 1 2 4 6 7 7 7 7 7 6 4 5 7 9 11 12 14 15 16 16 16 15 15 15 15 15 15 15 16 17 18 19 20 21 21 22 23 23 23
21 16 13 12 14 13 11 9 7 4 3 2 2 2 2 2 4 5 5 6 5 4 3 4 4 5 8 9 10 12 13 14 14 13 12 12 12 12 12 13 13 14 15 16 17 17 18 19 20 21 22 23 23 23
18 14 11 11 12 10 7 5 3 2 2 3 4 3 2 1 2 2 3 2 2 2 2 5 7 7 8 10 11 12 12 12 11 11 11 11 11 12 13 13 14 14 15 16 17 19 20 20 21 22 22 23 23 23
16 14 11 9 8 6 4 2 2 3 4 3 2 3 2 1 2 2 2 2 2 4 5 6 6 8 9 10 10 11 10 10 10 10 11 11 12 12 13 15 16 17 18 19 20 20 21 21 22 22 22 23 23 24
Wind_Direction
337 331 343 29 150 186 172 167 170 174 176 180 183 187 193 192 192 196 200 201 198 201 200 202 215 209 201 199 195 196 189 204 206 210 212 214 221 223 218 225 233 226 214 216 213 226 240 239 230 227 265 273 282 295
0 31 63 88 103 113 138 155 158 163 171 175 179 182 187 184 188 194 201 200 200 203 211 214 218 203 195 207 193 200 213 202 204 200 211 203 216 225 215 220 222 233 231 228 231 239 247 255 258 263 264 270 290 292
58 71 91 95 109 119 130 141 151 161 164 172 169 181 178 181 186 195 202 205 201 205 214 225 225 212 209 186 187 203 203 206 221 220 219 217 215 226 224 224 228 230 244 246 251 252 255 257 262 263 268 277 282 285
75 86 101 109 114 121 129 137 144 150 154 161 168 165 170 175 188 197 202 199 197 205 216 225 197 222 199 190 197 202 207 214 222 222 223 227 225 229 235 231 232 235 237 241 240 247 257 257 261 269 275 279 278 277
59 99 104 112 118 123 129 132 134 146 153 159 154 159 168 180 191 195 200 199 197 203 224 239 231 239 220 193 193 191 199 201 201 206 217 224 226 230 236 236 234 235 240 244 250 252 259 269 270 271 277 277 274 266
76 85 102 112 115 120 120 126 130 133 135 147 153 161 173 182 189 186 189 199 201 201 213 195 220 226 207 200 205 207 201 201 199 212 217 219 221 224 235 239 244 247 242 249 253 253 260 264 261 265 278 277 260 253
97 101 102 100 107 109 115 124 130 133 137 145 154 163 170 170 167 176 194 199 199 206 210 241 229 228 192 196 206 197 202 208 212 215 223 223 222 223 231 237 236 243 248 238 247 255 254 253 265 277 259 273 255 248
117 116 117 117 119 126 130 132 135 135 140 150 158 158 165 165 171 186 210 219 209 207 209 225 210 218 192 189 188 195 198 202 208 212 219 215 215 222 239 244 244 236 234 243 247 250 253 249 256 245 273 257 260 250
100 107 122 127 127 129 132 138 143 146 146 151 155 154 149 151 148 150 167 156 173 180 199 215 212 224 189 192 186 187 196 205 211 219 223 220 226 229 238 244 243 246 244 231 231 237 249 239 254 255 261 249 256 250
114 111 115 117 122 130 133 136 141 144 147 144 140 146 151 152 112 107 117 141 167 203 228 237 224 219 155 182 189 192 198 193 216 223 223 225 229 232 234 232 231 233 239 241 242 246 251 260 248 252 259 260 252 248
116 119 121 120 120 119 122 125 126 128 130 132 137 142 153 160 144 136 157 179 183 224 218 228 233 212 157 159 161 188 164 204 214 210 207 221 229 240 240 241 242 241 247 252 255 253 247 248 249 250 253 244 246 246
115 126 127 127 126 123 122 123 126 128 116 111 135 140 142 145 158 163 203 212 191 204 174 219 228 248 231 135 139 181 187 202 201 168 188 219 223 231 237 243 249 253 254 251 254 255 256 255 247 241 233 226 230 243
112 113 114 119 123 128 127 118 113 120 126 129 134 135 147 156 194 211 208 195 197 182 200 202 179 200 210 198 143 217 200 193 157 173 167 172 217 227 231 232 234 237 240 243 247 249 246 234 231 233 234 251 259 254
122 121 124 123 117 120 136 129 136 135 136 125 127 145 191 193 226 232 248 236 215 207 214 204 181 166 184 179 211 208 182 158 100 70 26 38 166 209 227 224 220 220 222 240 243 244 248 249 255 258 249 240 237 238
129 130 134 139 131 128 142 150 159 158 159 174 135 176 256 239 241 210 213 211 204 194 194 190 183 174 162 173 167 155 125 71 71 38 17 75 96 138 166 172 184 214 239 239 243 238 220 207 208 217 221 222 225 231
150 149 154 153 150 147 147 114 130 179 191 117 106 146 169 127 137 145 150 150 155 167 167 166 147 131 113 112 102 75 75 67 67 71 69 72 73 91 104 115 140 150 158 172 172 174 187 194 194 200 195 219 247 252
160 168 174 169 168 173 173 198 325 88 83 107 104 110 118 117 125 111 112 112 128 136 127 112 99 78 93 68 67 61 97 96 91 86 83 88 91 98 105 108 112 106 115 136 146 140 134 137 164 212 231 242 262 271
158 171 177 178 181 187 164 17 96 93 91 98 98 88 81 78 79 84 99 114 110 120 122 90 91 99 76 86 100 104 101 99 97 101 101 102 102 94 84 79 82 87 99 111 109 99 105 131 194 243 251 250 249 252
147 161 177 188 198 185 131 112 107 91 83 79 72 71 74 76 79 82 86 98 103 103 118 88 82 93 100 103 103 100 96 96 96 105 111 111 106 95 88 84 87 95 95 99 99 102 281 281 285 288 288 286 283 281
160 153 151 161 162 145 103 105 105 97 88 86 87 80 75 72 70 76 87 95 101 139 108 103 98 99 100 100 99 98 95 88 82 88 104 108 104 82 75 88 95 104 91 340 303 299 299 300 300 297 293 291 289 288
160 155 162 165 180 127 107 113 102 97 93 90 86 78 76 78 75 78 88 101 103 98 98 100 103 104 104 105 107 104 97 88 91 85 90 70 63 38 3 336 327 323 315 310 306 303 302 301 300 297 295 293 293 293
146 158 187 195 166 123 110 115 110 106 105 97 91 91 91 90 91 88 95 90 96 102 102 104 103 99 97 98 96 98 100 91 53 15 341 346 352 339 330 324 320 315 312 309 306 305 306 305 304 302 301 301 301 301
113 112 114 108 100 108 113 116 110 108 110 99 98 90 91 89 86 94 89 94 102 105 108 109 108 109 110 108 96 80 64 62 51 31 17 359 343 335 331 330 326 322 318 315 313 312 311 310 308 306 306 306 305 304
111 110 96 93 103 120 123 122 118 111 112 111 106 100 94 92 95 95 103 110 115 119 125 130 133 133 131 123 111 106 74 358 316 308 313 313 310 310 309 309 308 308 308 309 311 312 311 310 310 309 308 307 306 306
82 82 101 105 112 122 119 120 119 117 113 110 102 97 98 97 101 108 121 125 127 131 135 138 136 132 122 120 168 301 310 315 319 319 319 317 316 314 313 315 316 317 317 315 315 314 313 312 311 311 311 312 313 312
121 88 116 122 127 122 120 118 118 113 110 96 99 104 97 84 84 131 151 152 154 158 164 172 174 185 248 304 319 321 325 324 322 319 321 321 323 323 322 321 320 319 319 319 318 316 316 316 318 320 320 320 321 321
105 113 132 138 134 134 127 124 121 116 102 91 99 86 63 59 46 172 193 196 195 198 203 220 254 284 302 310 313 316 317 316 317 321 323 322 320 320 319 319 319 319 318 318 319 321 324 326 327 328 328 328 329 330
127 123 123 123 123 122 123 123 114 98 98 105 118 104 108 226 280 219 215 220 226 235 249 269 282 291 297 300 305 311 316 321 320 318 318 318 316 317 318 319 321 322 325 326 328 330 331 333 335 336 336 336 336 335
127 127 125 126 125 123 120 118 116 120 118 114 105 85 353 288 280 237 229 234 245 256 268 278 284 290 297 305 312 316 319 319 317 317 319 320 321 322 325 327 329 330 332 333 335 336 337 339 340 341 342 343 343 342
126 125 129 131 132 123 119 114 116 111 104 91 67 48 318 263 231 239 239 246 255 267 276 281 285 292 306 313 315 314 315 317 319 321 322 323 327 330 333 336 338 340 339 339 339 340 340 340 342 344 346 348 349 349
123 128 132 130 124 120 119 115 113 109 90 53 26 347 302 274 249 240 243 249 253 254 265 281 294 305 311 316 320 323 325 328 329 330 332 335 338 340 342 344 344 343 341 341 340 339 339 340 342 343 344 346 347 349
120 114 112 116 115 114 112 118 115 82 24 347 338 340 350 280 204 214 216 225 239 251 279 304 313 319 322 322 324 328 331 334 336 338 340 340 341 342 343 343 342 340 338 337 336 336 337 337 338 339 340 341 343 344
116 109 106 104 108 110 101 98 40 356 337 346 10 347 343 281 253 253 251 235 278 310 317 316 318 321 323 325 327 331 334 337 337 337 339 342 343 341 340 339 338 336 335 334 333 332 332 331 332 332 334 335 337 339